RH
44 44 44 43 46 49 55 62 71 86 79 40 44 43 37 28 26 29 27 23 24 23 20 18 42 61 79 84 92 92 100 89 89 87 79 81 78 93
52 51 49 48 48 48 50 56 66 78 93 62 45 41 44 40 30 30 30 26 24 24 23 30 22 42 78 83 84 95 100 94 87 87 78 80 77 90
57 57 56 55 54 53 51 53 59 70 91 76 65 37 39 49 40 30 31 32 29 27 24 23 24 26 64 87 97 98 100 95 88 88 78 77 77 81
64 65 63 61 59 57 57 56 56 57 74 79 68 64 41 45 48 44 34 38 42 32 31 24 32 69 49 80 93 97 99 100 89 86 77 77 79 81
69 68 66 64 63 62 61 62 62 61 69 82 80 70 61 39 47 54 51 42 46 40 34 27 41 72 77 83 100 90 99 100 92 86 77 75 78 81
76 76 77 77 76 76 74 72 70 69 72 86 89 89 79 52 48 66 73 64 54 47 47 72 49 38 64 94 98 100 97 100 99 94 78 73 79 81
84 84 80 75 71 86 88 85 82 79 81 87 90 87 90 87 72 61 81 82 75 66 69 48 34 23 22 55 81 98 100 100 100 96 80 74 79 84
80 80 82 86 88 86 80 78 86 93 88 91 88 89 88 87 77 73 78 88 82 69 72 64 48 30 26 25 50 78 100 100 100 99 91 76 78 85
96 96 94 95 90 96 94 81 76 75 91 99 93 89 89 91 87 84 85 90 94 85 74 73 67 56 37 34 34 51 93 100 100 100 97 80 77 79
83 86 87 85 83 83 85 90 96 82 67 66 80 96 97 96 98 84 86 90 87 88 79 89 81 70 58 43 35 45 69 99 100 100 99 91 80 79
77 78 80 82 87 88 87 92 88 96 96 85 81 78 80 83 86 97 96 97 90 82 78 89 87 82 69 66 93 67 60 82 100 100 100 98 81 82
85 85 86 86 87 84 95 99 100 95 93 98 85 80 77 78 79 84 99 98 92 81 73 83 84 92 91 86 86 88 100 97 96 100 100 100 87 87
86 89 90 89 82 75 77 85 98 93 94 92 99 92 85 79 74 71 89 98 99 92 76 77 79 83 81 88 83 74 81 97 100 100 99 100 93 91
95 90 85 89 83 78 74 74 70 72 96 98 98 98 99 93 83 76 68 66 78 82 84 82 82 79 84 86 89 79 71 72 100 100 100 100 98 89
85 87 82 79 80 82 81 82 84 94 98 100 97 98 96 90 82 86 78 79 82 75 82 76 83 85 92 95 94 89 89 72 77 100 100 100 100 100
86 82 90 92 85 82 84 86 85 82 85 95 98 97 92 95 95 92 91 90 97 100 87 84 88 91 100 91 94 95 97 90 76 96 100 100 100 100
87 97 98 98 99 95 96 92 78 84 92 89 98 99 99 100 100 95 92 100 100 94 95 93 88 93 97 94 94 95 98 98 94 76 95 100 100 100
96 95 83 82 84 86 95 100 96 95 95 96 98 97 99 100 96 98 100 100 97 91 92 85 86 80 96 98 99 96 96 100 99 97 99 100 100 100
84 84 92 95 95 93 93 90 88 93 95 95 97 98 98 95 96 97 98 97 96 88 86 84 84 95 90 86 82 98 100 100 100 100 99 98 99 100
91 98 96 96 95 95 95 95 95 93 94 99 99 99 96 94 94 95 98 93 91 90 95 95 92 90 91 85 80 72 83 89 100 100 100 93 99 98
95 96 96 96 99 99 99 99 99 97 97 98 98 93 94 98 97 95 93 80 92 88 82 89 93 93 88 86 92 86 84 82 96 100 100 100 100 99
98 97 97 98 99 99 99 100 99 99 98 97 96 98 97 98 97 96 91 84 90 96 90 84 86 86 86 97 84 79 80 85 84 86 100 100 100 99
99 99 99 99 98 98 99 100 100 98 99 98 98 99 98 98 97 93 91 95 96 93 95 94 91 87 92 92 94 96 89 87 92 100 98 99 94 100
Wind_Speed
11 11 12 11 11 11 12 13 8 2 2 8 8 8 21 32 31 30 29 28 26 25 22 19 20 18 18 18 17 16 36 37 33 30 25 24 19 17
15 15 16 15 14 14 15 15 17 16 3 7 20 32 34 32 28 28 28 27 25 24 23 21 20 21 19 17 16 14 32 38 36 34 30 26 22 20
17 17 19 18 18 18 17 18 19 20 15 20 25 33 36 31 29 27 27 27 26 24 25 23 20 19 19 17 16 17 25 44 39 37 32 28 25 22
20 20 21 20 21 21 20 22 23 23 21 19 24 27 31 30 29 26 26 25 24 25 25 24 20 17 16 18 17 18 21 46 44 41 36 30 28 25
22 23 23 21 24 24 23 24 24 24 24 22 21 23 27 30 30 28 26 23 26 26 26 22 18 17 17 17 15 18 15 48 49 44 39 33 30 28
23 23 23 22 24 24 25 26 25 23 23 21 20 19 20 26 26 27 20 24 29 29 18 15 20 22 20 15 17 14 17 38 46 44 41 35 33 30
23 24 26 27 27 23 23 24 24 24 21 17 16 16 14 14 18 20 22 23 26 14 18 21 26 25 21 18 17 13 18 27 47 47 43 39 36 33
27 26 26 25 22 23 26 27 27 26 26 20 18 18 18 18 19 22 24 15 7 7 23 36 31 28 25 20 18 18 15 19 52 50 46 42 40 36
21 23 25 20 22 22 24 26 28 29 31 28 26 26 23 20 19 21 23 20 16 21 21 29 23 28 24 24 20 20 17 21 41 51 49 46 43 39
24 26 26 26 26 25 26 27 30 32 34 34 30 25 25 23 19 20 20 21 24 22 14 14 18 28 27 26 24 21 23 14 36 54 51 51 47 43
25 25 26 27 26 22 25 27 28 28 28 29 30 30 30 27 25 20 23 16 18 19 13 14 17 25 26 23 16 15 20 22 24 46 61 56 52 47
24 25 25 25 23 23 25 26 26 27 24 27 30 30 31 31 29 30 24 20 16 11 13 14 11 8 9 9 11 10 9 16 26 36 59 60 57 52
23 24 24 23 24 25 25 25 26 26 26 27 27 31 32 33 33 33 27 24 20 22 14 9 7 11 11 13 25 24 18 12 13 33 57 63 62 55
22 23 27 25 26 26 26 27 27 27 25 25 27 25 26 28 30 28 26 33 34 35 29 24 20 17 16 15 12 21 26 22 8 27 46 58 65 59
25 27 27 29 29 27 27 27 27 25 19 20 18 23 26 29 29 26 24 25 27 29 29 27 28 25 25 20 19 22 21 19 21 12 33 43 55 49
27 30 27 25 26 26 25 25 25 25 22 21 19 22 24 25 26 25 25 24 24 22 25 23 25 22 22 21 19 22 21 12 11 9 19 34 44 51
27 23 20 19 19 23 23 24 26 25 24 23 19 19 24 23 23 26 27 22 20 17 16 19 19 20 25 23 21 21 22 22 23 28 17 22 43 45
22 12 21 18 17 18 16 18 21 22 21 23 22 22 21 21 22 22 23 22 21 19 20 19 18 18 19 23 27 25 25 23 20 21 22 14 34 44
20 19 18 16 16 17 18 18 19 20 23 22 22 22 22 22 23 22 23 23 22 22 23 20 20 18 9 12 15 16 26 26 22 22 24 23 22 44
18 16 17 18 18 18 18 18 19 20 20 22 22 22 23 22 22 22 22 24 23 22 20 23 25 24 21 13 13 16 17 30 22 22 23 27 18 40
17 17 18 19 19 20 20 21 21 21 21 21 23 23 23 23 23 23 23 25 23 23 22 22 24 24 24 24 21 23 26 25 25 25 22 20 16 26
19 19 20 20 20 21 22 20 21 22 22 21 21 24 26 25 23 22 24 24 24 22 24 22 21 22 24 23 20 21 20 22 26 27 27 23 12 9
21 21 22 22 23 22 22 22 22 21 22 23 21 21 23 25 27 26 25 24 23 22 22 20 23 28 25 24 23 20 22 22 21 21 28 29 38 28
Wind_Direction
293 290 287 286 279 270 258 250 220 291 298 308 314 302 316 326 333 334 337 340 344 345 339 319 318 303 298 308 291 288 200 199 198 197 198 200 197 186
290 288 286 287 284 279 270 257 242 235 246 273 291 299 311 317 324 326 331 334 337 339 339 329 310 300 302 302 283 279 208 202 198 198 198 199 197 186
282 283 283 285 284 279 275 269 258 248 247 273 281 297 304 311 318 323 327 332 332 334 333 330 323 305 285 294 270 262 228 203 201 200 198 201 198 190
286 284 283 285 281 280 275 270 268 265 253 265 281 291 297 305 312 318 321 324 328 327 329 327 324 319 292 282 286 255 240 205 202 201 197 198 194 191
286 285 284 284 281 280 278 275 272 272 266 253 265 279 289 298 307 311 316 318 321 324 325 318 312 310 301 273 291 258 253 207 203 199 197 196 192 192
288 285 284 282 281 282 282 280 279 273 270 255 257 264 272 289 297 303 311 316 319 324 319 317 318 311 303 288 282 289 236 204 201 201 196 194 192 194
289 284 283 285 284 275 273 275 273 272 261 251 252 260 252 258 275 294 300 312 317 317 309 312 320 314 308 286 282 283 238 224 208 204 199 193 190 195
284 285 285 285 277 273 269 266 262 260 253 244 249 246 252 246 269 280 292 304 314 311 323 312 315 310 310 300 279 274 276 219 210 203 200 194 189 196
284 287 286 277 274 273 271 268 265 262 260 258 243 243 251 246 259 268 273 275 271 290 311 303 307 308 309 304 290 267 265 223 216 207 201 197 192 194
289 289 287 284 279 273 267 263 260 259 259 261 262 262 261 264 253 264 269 276 286 287 293 282 300 301 311 300 293 267 251 246 216 217 206 199 195 191
293 289 285 284 282 275 271 266 261 260 256 256 257 259 260 258 256 247 243 248 274 277 266 266 291 296 304 310 324 288 265 243 222 210 211 203 196 191
286 284 281 279 281 279 271 264 260 259 255 247 252 253 253 254 253 248 239 224 233 291 259 235 280 330 322 301 296 336 329 260 247 216 213 205 196 189
277 277 275 281 283 281 277 272 263 267 257 250 241 247 253 256 256 250 245 241 224 234 230 260 266 290 301 308 309 308 316 328 271 219 208 206 195 185
287 284 286 282 281 280 279 276 274 273 267 241 235 232 234 242 250 251 248 244 246 251 253 250 262 260 271 273 286 299 302 321 276 211 198 197 196 189
289 287 285 284 284 283 279 278 276 273 270 245 239 229 229 240 251 253 256 254 253 252 254 249 250 250 253 261 273 283 309 298 302 247 197 191 185 184
295 293 287 284 282 281 280 274 270 267 262 259 255 238 240 232 236 241 244 250 249 253 252 244 247 243 247 251 257 267 270 266 274 339 209 196 190 183
290 288 280 280 279 281 278 272 275 268 253 251 245 247 235 229 228 234 235 235 233 241 245 250 241 245 248 247 250 254 265 263 269 276 282 202 190 186
307 311 309 295 281 278 275 262 265 261 251 248 243 241 235 222 222 223 226 227 231 235 237 239 241 238 247 252 243 250 258 261 264 268 266 280 194 188
311 304 294 284 279 277 274 270 271 262 260 248 240 236 235 232 228 220 218 222 229 234 236 230 231 224 237 244 243 239 243 256 259 258 260 251 229 187
305 293 288 286 283 281 278 273 269 265 260 248 243 236 234 234 228 226 218 219 226 234 236 227 221 220 227 241 248 248 260 249 242 250 256 258 271 193
297 294 290 289 287 285 280 276 270 266 260 253 246 238 235 227 226 223 225 229 228 228 237 236 234 237 239 244 252 253 255 259 253 248 249 244 238 168
297 296 296 294 291 289 286 284 278 268 262 262 261 239 222 223 226 226 227 228 231 232 234 237 234 235 235 229 241 250 255 259 255 254 236 229 224 171
300 298 297 293 295 290 291 286 278 278 263 258 253 251 242 223 222 226 227 226 227 231 235 231 228 229 227 234 236 239 237 246 249 242 255 236 235 234